Location: Escusa
(40.3667°N, 4.6167°W)
Time: 07:31:36
(UTC+00:00)

Daily predictions for brighter satellites

Satellite Brightness Start Highest point End
(mag) Time Altitude Azimuth Time Altitude Azimuth Time Altitude Azimuth
BREEZE-M DEB (TANK) 3.4 18:15:03 10° SW 18:18:35 71° SE 18:30:33 10° ENE
GENESIS II 4.3 18:20:56 10° NNW 18:25:00 63° ENE 18:29:00 10° SE
CZ-2C R/B 2.3 18:22:35 10° WSW 18:25:20 27° S 18:28:12 10° SE
Cosmos 1242 Rocket 3.1 18:22:11 10° SSE 18:25:27 35° E 18:28:43 10° NNE
Cosmos 2219 3.3 18:20:29 10° NNW 18:26:14 66° ENE 18:31:57 10° SSE
Meteor 1-21 4.2 18:21:27 10° N 18:27:12 80° E 18:32:50 10° SSE
BREEZE M DEB (TANK) 4.4 18:17:50 10° SSW 18:27:19 30° SSE 18:31:03 10° E
MINOTAUR 4 R/B 4.5 18:26:42 10° N 18:30:10 67° WNW 18:33:36 10° SSW
Spot 1 4.1 18:27:13 10° NNE 18:31:21 52° E 18:35:19 10° S
Cosmos 2360 4.4 18:26:04 10° SSW 18:31:47 80° WNW 18:37:32 10° NNE
Cosmos 1805 3.8 18:28:45 10° SSE 18:32:16 35° E 18:35:50 10° NNE
SL-14 R/B 4.5 18:29:23 10° NNE 18:32:33 23° ENE 18:35:44 10° SE
Cosmos 2263 Rocket 3.3 18:28:43 10° N 18:33:19 25° NE 18:37:55 10° ESE
YAOGAN 1 3.3 18:30:27 10° SE 18:34:16 32° ENE 18:38:07 10° N
Cosmos 1726 3.2 18:33:10 10° SE 18:36:02 22° E 18:38:55 10° NE
COBE Rocket 4.3 18:31:53 10° SE 18:36:29 41° ENE 18:40:58 10° N
SKYMED 2 3.9 18:36:04 10° N 18:40:25 71° WNW 18:44:44 10° SSW
DMSP B5D2-2 4.4 18:39:07 10° N 18:44:24 73° WNW 18:49:37 10° SSW
Cosmos 2082 4.0 18:39:30 10° NNW 18:45:05 50° ENE 18:50:38 10° SE
USA 267 3.3 18:38:49 10° SE 18:45:23 89° NE 18:51:59 10° NW
Cosmos 1674 2.8 18:42:00 10° N 18:45:46 77° W 18:49:27 10° S
Cosmos 1766 4.3 18:43:07 10° SE 18:46:17 24° E 18:49:30 10° NE
Cosmos 1697 Rocket 3.5 18:44:14 10° SW 18:49:43 56° WNW 18:55:15 10° NNE
Cosmos 2279 Rocket 4.0 18:52:33 10° N 18:58:51 79° E 19:05:06 10° S
Cosmos 2221 Rocket 3.7 18:55:14 10° N 18:59:42 57° E 19:04:10 10° SSE
PSLV R/B 4.0 18:56:03 10° S 18:59:44 67° WSW 19:03:24 10° NNW
ASTEX 1 3.7 18:57:47 10° N 19:02:46 75° W 19:07:43 10° SSW
Cosmos 2142 Rocket 4.5 18:57:39 10° N 19:04:01 85° E 19:10:15 10° S
Cosmos 2180 Rocket 4.5 18:58:04 10° N 19:04:17 66° E 19:10:33 10° SSE
Cosmos 468 Rocket 4.4 19:00:29 10° NNW 19:05:36 68° WSW 19:10:44 10° S
Cosmos 1733 3.4 19:02:36 10° SSW 19:06:21 72° W 19:10:06 10° N
Cosmos 1378 Rocket 3.7 19:02:08 10° N 19:06:24 47° E 19:10:35 10° SSE
Cosmos 968 Rocket 4.3 19:02:42 10° SSE 19:07:06 28° E 19:11:30 10° NE
Hubble Space Telescope 3.0 19:08:00 10° SW 19:10:15 14° S 19:12:31 10° SSE
Cosmos 1733 Rocket 3.5 19:09:07 10° SSW 19:13:30 66° W 19:17:56 10° N
Meteor 2-14 Rocket 4.3 19:09:14 10° S 19:15:15 76° E 19:21:20 10° N
Cosmos 540 Rocket 3.6 19:10:30 10° NNW 19:15:36 76° WSW 19:20:41 10° SSE
Cosmos 2227 Rocket 3.7 19:12:51 10° NW 19:18:02 37° WSW 19:23:10 10° S
USA 229 DEB 4.1 19:13:18 10° NW 19:20:49 84° WSW 19:28:47 10° SSE
USA 229 4.0 19:13:24 10° NW 19:20:55 84° WSW 19:28:53 10° SSE
CZ-4B R/B 3.4 19:15:42 10° S 19:21:01 74° WSW 19:26:28 10° NNW
Cosmos 2322 Rocket 3.5 19:17:07 10° SSE 19:27:51 - NE 19:19:41 20° SE
ISS -2.5 19:19:08 10° NW 19:22:06 28° NNE 19:22:45 26° NE
HJ-1C 3.5 19:19:22 10° S 19:22:27 68° W 19:25:34 10° NNW
CSL-04 Rocket 4.2 19:21:40 24° ESE 19:24:04 36° ENE 19:28:56 10° N
Okean-O 3.5 19:24:10 28° E 19:24:39 29° ENE 19:28:27 10° N
Cosmos 1850 Rocket 4.5 19:19:53 10° SSW 19:25:02 64° WNW 19:30:16 10° NNE
CZ-4 R/B 1.4 19:21:40 10° SSE 19:25:48 85° ENE 19:30:00 10° N
Feng Yun 1-1 Rocket 4.1 19:20:59 10° SSE 19:26:31 75° ENE 19:31:57 10° N
Cosmos 841 Rocket 3.4 19:21:40 10° NNW 19:26:53 86° ENE 19:32:01 10° SSE
Cosmos 1980 Rocket 3.0 19:24:28 10° SW 19:29:58 53° WNW 19:35:29 10° NNE
SJ-6B 3.5 19:30:24 32° ENE 19:30:24 32° ENE 19:33:25 10° N
Meteor 1-12 Rocket 4.3 19:26:18 10° S 19:32:14 72° E 19:38:14 10° NNE
Meteor 2-21 Rocket 4.3 19:26:29 10° S 19:32:31 72° E 19:38:32 10° NNE
OAO 2 Rocket 3.9 19:33:32 10° WSW 19:38:05 39° S 19:39:12 34° SE
USA 186 2.9 19:40:04 33° NNE 19:40:04 33° NNE 19:42:15 10° N
Cosmos 489 Rocket 4.5 19:36:33 10° SSW 19:42:54 89° WNW 19:49:17 10° NNE
Cosmos 2195 Rocket 4.5 19:37:01 10° SSE 19:43:02 57° E 19:49:10 10° NNE
Cosmos 2278 3.9 19:39:35 10° SSW 19:45:16 74° WNW 19:50:58 10° NNE
Cosmos 1437 Rocket 2.4 19:43:20 10° S 19:47:07 76° E 19:50:51 10° NNE
SL-16 R/B 2.2 19:43:01 10° S 19:48:32 56° ESE 19:54:04 10° NNE
Meteor 2-16 Rocket 4.3 19:43:26 10° S 19:49:33 84° E 19:55:44 10° N
Meteor 1-24 Rocket 3.8 19:45:57 10° N 19:51:02 46° ENE 19:51:25 46° E
SL-4 R/B 3.3 19:48:50 10° NW 19:52:58 33° NNE 19:53:27 32° NE
Okean O Rocket 3.0 19:52:40 10° SSW 19:56:41 37° W 20:00:44 10° NNW
Cosmos 2208 Rocket 4.5 19:52:19 10° N 19:57:21 43° ENE 19:57:21 43° ENE
Cosmos 1908 Rocket 3.9 19:53:33 10° SSW 19:57:50 63° W 20:02:09 10° N
Meteor 1-22 Rocket 4.0 19:52:58 10° S 19:58:16 72° E 20:03:46 10° NNE
Cosmos 1844 Rocket 3.9 19:55:16 10° N 19:59:17 25° NE 19:59:17 25° NE
Cosmos 2026 Rocket 3.8 19:54:32 10° S 20:00:31 66° E 20:06:31 10° NNE
CZ-3 Stage 3 4.2 19:55:24 10° WSW 20:01:19 46° S 20:09:48 29° SE
Cosmos 2285 Rocket 3.9 19:56:51 10° NNW 20:03:15 81° ENE 20:05:47 39° SSE
CZ-2C R/B 3.5 20:02:12 10° SW 20:03:03 12° SW 20:03:03 12° SW
USA 81 4.1 19:58:50 10° N 20:03:45 56° ENE 20:03:45 56° ENE
Landsat 5 3.9 20:00:00 10° N 20:04:28 68° WNW 20:08:52 10° SSW
Cosmos 1782 Rocket 4.3 20:06:54 41° NNE 20:06:54 41° NNE 20:09:48 10° N
Timation 2 Rocket 4.3 20:00:24 10° NNW 20:06:44 65° WSW 20:10:25 25° S
OBJECT-B 3.6 20:09:48 11° NNW 20:09:48 11° NNW 20:09:57 10° NNW
Cosmos 2292 Rocket 4.3 20:01:57 10° SSW 20:08:03 67° W 20:12:39 10° N
Cosmos 1814 Rocket 4.0 20:04:11 10° NNW 20:09:27 80° WSW 20:10:44 52° S
Cosmos 2263 Rocket 2.9 20:12:01 10° NNW 20:17:31 51° WSW 20:20:24 27° S
CRYOSAT 2 4.4 20:18:19 67° SSW 20:18:53 77° W 20:23:48 10° N
Cosmos 2227 4.1 20:15:12 10° NNW 20:20:50 82° WSW 20:21:31 69° S
Meteor 2-5 Rocket 3.7 20:17:14 10° NNW 20:22:46 79° W 20:23:47 60° SSW
IRS-1C Rocket 4.2 20:27:16 65° SW 20:27:50 71° WSW 20:33:06 10° NNW
Resurs 01 Rocket 3.8 20:42:59 19° N 20:42:59 19° N 20:44:18 10° N
Cosmos 2322 Rocket 3.9 20:59:34 10° SW 21:09:30 16° N 21:10:38 10° NNE
SL-16 R/B 4.3 21:28:36 10° WSW 21:32:59 23° NW 21:37:24 10° N
